Location: Male Bielice
(48.6330°N, 18.3330°E)
Time: 04:41:14
(UTC+02:00)

ISS - Visible Passes

Search period start: 25 July 2017 00:00
Search period end: 04 August 2017 00:00
Orbit: 400 x 408 km, 51.6° (Epoch: 25 July)

Date Brightness Start Highest point End Pass type
(mag) Time Alt. Az. Time Alt. Az. Time Alt. Az.
25 Jul -2.9 00:09:00 10° W 00:12:10 48° N 00:15:21 10° ENE visible
25 Jul -3.5 01:45:40 10° WNW 01:48:55 65° NNE 01:52:10 10° E visible
25 Jul -3.2 03:22:17 10° W 03:25:17 34° SW 03:28:16 10° SSE visible
25 Jul -3.6 21:40:09 10° SW 21:43:17 47° SSE 21:46:26 10° ENE visible
25 Jul -3.2 23:16:32 10° W 23:19:45 55° N 23:22:58 10° ENE visible
26 Jul -3.1 00:53:19 10° WNW 00:56:31 53° N 00:56:43 51° NNE visible
26 Jul -3.6 22:24:06 10° WSW 22:27:21 70° NNW 22:30:37 10° ENE visible
27 Jul -2.9 00:00:55 10° WNW 00:04:05 47° N 00:05:18 30° ENE visible
27 Jul -1.2 01:37:28 10° WNW 01:37:54 13° WNW 01:37:54 13° WNW visible
27 Jul -3.9 21:31:44 10° WSW 21:34:59 84° SSE 21:38:15 10° ENE visible
27 Jul -2.8 23:08:28 10° W 23:11:38 47° N 23:14:18 14° ENE visible
28 Jul -2.2 00:45:06 10° WNW 00:46:54 30° WNW 00:46:54 30° WNW visible
28 Jul -3.0 22:15:59 10° W 22:19:10 52° N 22:22:23 10° ENE visible
28 Jul -3.3 23:52:43 10° WNW 23:55:56 56° NNE 23:56:01 56° NNE visible
29 Jul -3.4 21:23:29 10° W 21:26:43 64° NNW 21:29:58 10° ENE visible
29 Jul -3.0 23:00:17 10° WNW 23:03:29 48° N 23:05:12 23° ENE visible
30 Jul -1.5 00:36:50 10° WNW 00:37:49 18° WNW 00:37:49 18° WNW visible
30 Jul -2.8 22:07:49 10° WNW 22:10:59 47° N 22:14:09 10° ENE visible
30 Jul -3.2 23:44:25 10° WNW 23:47:01 53° NW 23:47:01 53° NW visible
31 Jul -2.9 21:15:18 10° W 21:18:29 50° N 21:21:40 10° ENE visible
31 Jul -3.4 22:52:00 10° WNW 22:55:14 60° NNE 22:56:15 38° ENE visible
01 Aug -1.0 00:28:34 10° WNW 00:28:51 12° W 00:28:51 12° W visible
01 Aug -3.1 21:59:33 10° WNW 22:02:44 50° N 22:05:29 13° E visible
01 Aug -2.5 23:36:04 10° WNW 23:38:06 34° W 23:38:06 34° W visible
02 Aug -2.9 21:07:03 10° WNW 21:10:13 47° N 21:13:23 10° ENE visible
02 Aug -3.9 22:43:37 10° WNW 22:46:53 88° NNE 22:47:21 63° ESE visible
03 Aug -3.6 21:51:09 10° WNW 21:54:25 65° NNE 21:56:38 18° E visible
03 Aug -1.9 23:27:46 10° W 23:29:15 21° W 23:29:15 21° W visible
